K4VI Weather Reports


Display with metric or nautical units.
time (UTC)temp
F
wind
direction
speed
MPH
gust
MPH
rain 1hr
in
rain 24hr
in
rain mn
in
humidity
%
barometer
mb
20260905014503 66 233 0.0 2.0 0.00 0.00 0.00 38 1039.2
20260905014003 67 233 0.0 1.0 0.00 0.00 0.00 37 1039.1
20260905013503 67 232 0.0 1.0 0.00 0.00 0.00 36 1039.1
20260905013003 68 232 0.0 1.0 0.00 0.00 0.00 36 1039.0
20260905012503 68 232 0.0 1.0 0.00 0.00 0.00 36 1039.0
20260905012004 68 231 0.0 1.0 0.00 0.00 0.00 35 1038.9
20260905011503 69 115 0.0 3.0 0.00 0.00 0.00 35 1039.0
20260905011003 70 160 1.0 3.0 0.00 0.00 0.00 34 1039.0
20260905010503 71 232 0.0 2.0 0.00 0.00 0.00 33 1039.0
20260905010004 71 147 0.0 2.0 0.00 0.00 0.00 33 1039.0
20260905005503 72 115 0.0 2.0 0.00 0.00 0.00 32 1038.9
20260905005003 72 153 0.0 2.0 0.00 0.00 0.00 31 1038.8
20260905004503 72 248 1.0 4.0 0.00 0.00 0.00 31 1038.8
20260905004003 72 260 1.0 4.0 0.00 0.00 0.00 30 1038.7
20260905003503 73 278 1.0 2.0 0.00 0.00 0.00 30 1038.7
20260905003004 74 279 1.0 2.0 0.00 0.00 0.00 31 1038.7
20260905002503 74 283 2.0 4.0 0.00 0.00 0.00 30 1038.7
20260905002004 74 284 2.0 6.0 0.00 0.00 0.00 32 1038.8
20260905001720 74 286 2.0 6.0 0.00 0.00 0.00 32 1038.8
20260905001003 74 302 3.0 9.0 0.00 0.00 0.00 32 1038.9
20260905000721 74 309 5.0 11.0 0.00 0.00 0.00 33 1038.9
20260905000219 74 308 4.0 11.0 0.00 0.00 0.00 32 1038.9
20260904235503 75 220 2.0 4.0 0.00 0.00 0.00 29 1038.8
20260904235003 74 235 2.0 9.0 0.00 0.00 0.00 30 1038.8
20260904234503 73 259 3.0 9.0 0.00 0.00 0.00 31 1038.9
20260904234221 73 257 3.0 9.0 0.00 0.00 0.00 31 1039.0
20260904233719 74 248 3.0 8.0 0.00 0.00 0.00 30 1039.0
20260904233003 73 241 2.0 6.0 0.00 0.00 0.00 31 1039.0
20260904232503 73 247 3.0 8.0 0.00 0.00 0.00 31 1039.0
20260904232003 73 266 4.0 9.0 0.00 0.00 0.00 31 1038.9
20260904231503 74 270 4.0 9.0 0.00 0.00 0.00 30 1038.9
20260904231003 74 271 5.0 11.0 0.00 0.00 0.00 30 1039.0
20260904230503 74 272 5.0 11.0 0.00 0.00 0.00 30 1038.9
20260904230003 73 264 3.0 8.0 0.00 0.00 0.00 31 1038.9
20260904225503 71 247 3.0 7.0 0.00 0.00 0.00 31 1039.0
20260904225003 70 247 3.0 8.0 0.00 0.00 0.00 31 1039.0
20260904224503 70 269 3.0 9.0 0.00 0.00 0.00 31 1039.0
20260904224003 70 257 4.0 10.0 0.00 0.00 0.00 32 1039.0
20260904223503 70 251 4.0 12.0 0.00 0.00 0.00 33 1039.2
20260904223003 70 252 4.0 12.0 0.00 0.00 0.00 32 1039.1
20260904222721 70 256 3.0 11.0 0.00 0.00 0.00 35 1039.2
20260904222003 70 249 4.0 11.0 0.00 0.00 0.00 36 1039.1
20260904221503 70 249 5.0 11.0 0.00 0.00 0.00 38 1039.1
20260904221003 71 253 6.0 11.0 0.00 0.00 0.00 38 1039.0
20260904220503 71 255 5.0 11.0 0.00 0.00 0.00 37 1039.0
20260904220221 71 259 5.0 10.0 0.00 0.00 0.00 36 1039.1
20260904215718 72 238 4.0 10.0 0.00 0.00 0.00 35 1039.0
20260904215003 72 230 4.0 8.0 0.00 0.00 0.00 35 1039.1
20260904214503 72 257 3.0 8.0 0.00 0.00 0.00 35 1039.1
20260904214003 72 249 2.0 8.0 0.00 0.00 0.00 34 1039.1
20260904213721 72 175 2.0 7.0 0.00 0.00 0.00 34 1039.1
20260904213003 72 196 4.0 11.0 0.00 0.00 0.00 34 1039.1
20260904212503 73 194 4.0 12.0 0.00 0.00 0.00 34 1039.0
20260904212003 72 241 4.0 12.0 0.00 0.00 0.00 34 1039.1
20260904211717 72 233 4.0 12.0 0.00 0.00 0.00 34 1039.1
20260904211003 74 177 3.0 8.0 0.00 0.00 0.00 32 1039.0
20260904210503 75 228 4.0 11.0 0.00 0.00 0.00 31 1039.1
20260904210004 76 149 4.0 16.0 0.00 0.00 0.00 30 1039.1
20260904205503 77 134 5.0 16.0 0.00 0.00 0.00 30 1039.1
20260904205003 76 137 6.0 18.0 0.00 0.00 0.00 30 1039.1
20260904204503 76 131 8.0 18.0 0.00 0.00 0.00 31 1039.2
20260904204218 76 128 8.0 18.0 0.00 0.00 0.00 31 1039.1
20260904203503 75 131 5.0 17.0 0.00 0.00 0.00 32 1039.3
20260904203003 75 150 6.0 13.0 0.00 0.00 0.00 32 1039.5
20260904202503 75 185 5.0 13.0 0.00 0.00 0.00 33 1039.5
20260904202003 75 169 5.0 12.0 0.00 0.00 0.00 33 1039.5
20260904201718 75 150 5.0 12.0 0.00 0.00 0.00 32 1039.7
20260904201003 75 172 5.0 11.0 0.00 0.00 0.00 32 1039.7
20260904200719 75 174 5.0 11.0 0.00 0.00 0.00 32 1039.8
20260904200003 74 188 5.0 12.0 0.00 0.00 0.00 33 1039.8
20260904195720 74 245 5.0 12.0 0.00 0.00 0.00 33 1039.9
20260904195218 73 263 5.0 11.0 0.00 0.00 0.00 32 1039.9
20260904194503 73 258 5.0 12.0 0.00 0.00 0.00 33 1040.0
20260904194003 73 280 5.0 12.0 0.00 0.00 0.00 34 1039.9
20260904193503 73 301 6.0 13.0 0.00 0.00 0.00 33 1040.0
20260904193003 73 290 6.0 13.0 0.00 0.00 0.00 33 1040.1
20260904192718 73 271 5.0 11.0 0.00 0.00 0.00 33 1040.0
20260904192003 72 280 6.0 17.0 0.00 0.00 0.00 34 1040.1
20260904191503 73 289 6.0 17.0 0.00 0.00 0.00 32 1040.1
20260904191003 73 296 6.0 12.0 0.00 0.00 0.00 35 1040.1
20260904190503 73 279 5.0 12.0 0.00 0.00 0.00 34 1040.1
20260904190004 73 164 5.0 11.0 0.00 0.00 0.00 35 1040.3
20260904185503 72 155 5.0 10.0 0.00 0.00 0.00 37 1040.3
20260904185218 72 195 5.0 10.0 0.00 0.00 0.00 36 1040.3
20260904184503 71 259 4.0 10.0 0.00 0.00 0.00 36 1040.3
20260904184003 70 272 5.0 11.0 0.00 0.00 0.00 36 1040.5
20260904183503 70 266 4.0 12.0 0.00 0.00 0.00 37 1040.5
20260904183003 71 269 3.0 12.0 0.00 0.00 0.00 35 1040.3
20260904182503 71 275 4.0 10.0 0.00 0.00 0.00 35 1040.4
20260904182221 71 279 5.0 13.0 0.00 0.00 0.00 37 1040.6
20260904181503 71 261 6.0 13.0 0.00 0.00 0.00 37 1040.8
20260904181003 71 240 4.0 12.0 0.00 0.00 0.00 36 1040.7
20260904180503 72 240 4.0 10.0 0.00 0.00 0.00 36 1040.7
20260904180003 72 243 4.0 10.0 0.00 0.00 0.00 35 1040.8
20260904175503 72 263 4.0 10.0 0.00 0.00 0.00 37 1040.7
20260904175003 71 284 5.0 15.0 0.00 0.00 0.00 38 1040.8
20260904174717 71 278 5.0 15.0 0.00 0.00 0.00 36 1040.8
20260904174220 72 254 5.0 15.0 0.00 0.00 0.00 35 1040.9
20260904173503 71 176 5.0 13.0 0.00 0.00 0.00 36 1040.9
20260904173221 71 158 5.0 13.0 0.00 0.00 0.00 37 1040.8
20260904172503 71 168 3.0 8.0 0.00 0.00 0.00 39 1040.9
20260904171503 69 252 4.0 10.0 0.00 0.00 0.00 40 1040.7
20260904171003 70 144 4.0 12.0 0.00 0.00 0.00 40 1040.7
20260904170503 70 150 4.0 12.0 0.00 0.00 0.00 39 1040.7
20260904170004 70 244 3.0 12.0 0.00 0.00 0.00 41 1040.7
20260904165503 70 211 3.0 8.0 0.00 0.00 0.00 40 1040.7
20260904165003 69 190 3.0 11.0 0.00 0.00 0.00 41 1040.7
20260904164503 69 177 3.0 11.0 0.00 0.00 0.00 42 1040.7
20260904164003 68 160 4.0 12.0 0.00 0.00 0.00 43 1040.8
20260904163718 68 168 4.0 12.0 0.00 0.00 0.00 42 1040.8
20260904163003 67 231 3.0 8.0 0.00 0.00 0.00 43 1040.8
20260904162719 67 257 4.0 10.0 0.00 0.00 0.00 44 1040.7
20260904162004 66 272 6.0 12.0 0.00 0.00 0.00 45 1040.7
20260904161503 67 247 5.0 11.0 0.00 0.00 0.00 44 1040.8
20260904161003 67 205 5.0 12.0 0.00 0.00 0.00 44 1040.6
20260904160503 67 197 5.0 13.0 0.00 0.00 0.00 44 1040.6
20260904160003 67 180 4.0 13.0 0.00 0.00 0.00 44 1040.6
20260904155503 66 171 4.0 13.0 0.00 0.00 0.00 44 1040.5
20260904155003 66 167 5.0 13.0 0.00 0.00 0.00 46 1040.6
20260904154503 66 206 4.0 11.0 0.00 0.00 0.00 45 1040.6
20260904154003 65 258 4.0 8.0 0.00 0.00 0.00 45 1040.4
20260904153503 65 206 5.0 10.0 0.00 0.00 0.00 46 1040.3
20260904153003 65 172 5.0 10.0 0.00 0.00 0.00 46 1040.4
20260904152504 65 175 4.0 9.0 0.00 0.00 0.00 46 1040.4
20260904152003 65 164 3.0 9.0 0.00 0.00 0.00 46 1040.3
20260904151503 64 163 4.0 7.0 0.00 0.00 0.00 47 1040.4
20260904151003 64 180 4.0 9.0 0.00 0.00 0.00 47 1040.4
20260904150503 63 198 4.0 11.0 0.00 0.00 0.00 47 1040.4
20260904150004 63 219 3.0 11.0 0.00 0.00 0.00 47 1040.4
20260904145503 63 210 4.0 10.0 0.00 0.00 0.00 47 1040.4
20260904145003 62 229 4.0 10.0 0.00 0.00 0.00 47 1040.4
20260904144503 62 264 4.0 9.0 0.00 0.00 0.00 47 1040.3
20260904144003 62 270 4.0 9.0 0.00 0.00 0.00 46 1040.2
20260904143503 62 273 3.0 8.0 0.00 0.00 0.00 47 1040.2
20260904143003 62 270 3.0 8.0 0.00 0.00 0.00 47 1040.2
20260904142503 61 285 3.0 6.0 0.00 0.00 0.00 47 1040.3
20260904142004 61 275 3.0 7.0 0.00 0.00 0.00 47 1040.1
20260904141503 61 249 3.0 8.0 0.00 0.00 0.00 47 1040.0
20260904141003 61 254 3.0 8.0 0.00 0.00 0.00 47 1040.0
20260904140503 61 243 4.0 8.0 0.00 0.00 0.00 47 1039.9
20260904140004 60 199 3.0 8.0 0.00 0.00 0.00 47 1039.9
20260904135503 60 181 3.0 8.0 0.00 0.00 0.00 47 1039.9
20260904135003 60 180 2.0 5.0 0.00 0.00 0.00 47 1039.9
20260904134503 60 181 2.0 5.0 0.00 0.00 0.00 47 1039.9
20260904134217 60 190 2.0 5.0 0.00 0.00 0.00 47 1039.8
20260904133503 60 263 3.0 8.0 0.00 0.00 0.00 47 1039.7
20260904133218 60 296 3.0 9.0 0.00 0.00 0.00 47 1039.5
20260904132503 60 291 2.0 9.0 0.00 0.00 0.00 47 1039.4
20260904132003 60 248 1.0 3.0 0.00 0.00 0.00 46 1039.4
20260904131503 60 231 1.0 4.0 0.00 0.00 0.00 45 1039.3
20260904131003 60 270 3.0 9.0 0.00 0.00 0.00 45 1039.3
20260904130503 60 307 5.0 11.0 0.00 0.00 0.00 45 1039.2
20260904130221 60 315 5.0 11.0 0.00 0.00 0.00 46 1039.1
20260904125503 60 312 4.0 9.0 0.00 0.00 0.00 45 1038.9
20260904125003 61 313 4.0 12.0 0.00 0.00 0.00 45 1038.8
20260904124503 61 315 5.0 13.0 0.00 0.00 0.00 45 1038.9
20260904124218 61 309 4.0 13.0 0.00 0.00 0.00 45 1038.7
20260904123503 61 305 6.0 15.0 0.00 0.00 0.00 45 1038.7
20260904123219 61 305 5.0 15.0 0.00 0.00 0.00 45 1038.7
20260904122503 60 291 2.0 8.0 0.00 0.00 0.00 46 1038.6
20260904122004 60 290 3.0 8.0 0.00 0.00 0.00 45 1038.5
20260904121503 60 278 2.0 8.0 0.00 0.00 0.00 45 1038.5
20260904121221 60 265 1.0 4.0 0.00 0.00 0.00 44 1038.5
20260904120503 61 303 4.0 13.0 0.00 0.00 0.00 43 1038.4
20260904120003 62 312 5.0 13.0 0.00 0.00 0.00 44 1038.3
20260904115503 62 312 6.0 17.0 0.00 0.00 0.00 43 1038.3
20260904115003 62 310 6.0 17.0 0.00 0.00 0.00 43 1038.2
20260904114503 62 304 5.0 11.0 0.00 0.00 0.00 43 1038.3
20260904114219 62 307 4.0 11.0 0.00 0.00 0.00 43 1038.1
20260904113503 62 307 5.0 12.0 0.00 0.00 0.00 43 1038.0
20260904113003 62 307 6.0 15.0 0.00 0.00 0.00 42 1038.1
20260904112503 62 309 8.0 15.0 0.00 0.00 0.00 42 1038.1
20260904112003 63 309 8.0 15.0 0.00 0.00 0.00 42 1038.0
20260904111503 63 313 8.0 16.0 0.00 0.00 0.00 42 1038.0
20260904111003 63 309 9.0 16.0 0.00 0.00 0.00 41 1038.0
20260904110719 63 307 9.0 16.0 0.00 0.00 0.00 41 1038.1
20260904110003 62 310 9.0 16.0 0.00 0.00 0.00 42 1038.0
20260904105503 62 309 8.0 17.0 0.00 0.00 0.00 42 1038.2
20260904105003 63 301 8.0 17.0 0.00 0.00 0.00 41 1038.1
20260904104503 63 305 7.0 18.0 0.00 0.00 0.00 41 1038.1
20260904104004 63 308 8.0 19.0 0.00 0.00 0.00 41 1038.2
20260904103503 62 302 8.0 19.0 0.00 0.00 0.00 41 1037.9
20260904103003 62 305 8.0 12.0 0.00 0.00 0.00 42 1038.1
20260904102504 62 313 8.0 16.0 0.00 0.00 0.00 43 1038.0
20260904102003 61 316 7.0 16.0 0.00 0.00 0.00 43 1038.1
20260904101503 60 313 6.0 12.0 0.00 0.00 0.00 44 1037.9
20260904101003 60 312 7.0 12.0 0.00 0.00 0.00 44 1037.9
20260904100503 60 319 5.0 11.0 0.00 0.00 0.00 44 1037.9
20260904100003 60 323 5.0 9.0 0.00 0.00 0.00 44 1037.9
20260904095503 60 322 4.0 9.0 0.00 0.00 0.00 43 1037.8
20260904095003 60 323 3.0 7.0 0.00 0.00 0.00 43 1038.0
20260904094717 60 323 3.0 8.0 0.00 0.00 0.00 42 1038.0
20260904094003 60 309 3.0 8.0 0.00 0.00 0.00 42 1037.9
20260904093503 60 295 2.0 7.0 0.00 0.00 0.00 42 1037.9
20260904093003 61 296 2.0 8.0 0.00 0.00 0.00 41 1037.9
20260904092503 61 89 2.0 8.0 0.00 0.00 0.00 41 1037.9
20260904092003 61 99 2.0 4.0 0.00 0.00 0.00 38 1037.9
20260904091503 62 311 3.0 11.0 0.00 0.00 0.00 37 1037.8
20260904091003 62 328 3.0 11.0 0.00 0.00 0.00 38 1037.8
20260904090503 62 117 2.0 10.0 0.00 0.00 0.00 37 1037.9
20260904090004 63 122 3.0 11.0 0.00 0.00 0.00 36 1037.8
20260904085503 63 305 4.0 14.0 0.00 0.00 0.00 36 1037.8
20260904085003 64 294 5.0 15.0 0.00 0.00 0.00 36 1037.7
20260904084503 64 297 7.0 18.0 0.00 0.00 0.00 35 1037.6
20260904084003 64 302 7.0 18.0 0.00 0.00 0.00 35 1037.6
20260904083503 63 307 7.0 18.0 0.00 0.00 0.00 34 1037.6
20260904083003 64 314 8.0 18.0 0.00 0.00 0.00 34 1037.6
20260904082503 63 313 9.0 17.0 0.00 0.00 0.00 34 1037.8
20260904082003 63 311 8.0 17.0 0.00 0.00 0.00 34 1038.0
20260904081503 62 314 7.0 14.0 0.00 0.00 0.00 35 1038.2
20260904081003 61 315 6.0 13.0 0.00 0.00 0.00 36 1038.2
20260904080503 60 312 4.0 12.0 0.00 0.00 0.00 35 1038.2
20260904080003 60 309 3.0 12.0 0.00 0.00 0.00 36 1038.2
20260904075503 60 286 1.0 8.0 0.00 0.00 0.00 36 1038.2
20260904075220 60 287 1.0 4.0 0.00 0.00 0.00 36 1038.3
20260904074718 60 299 2.0 4.0 0.00 0.00 0.00 36 1038.4
20260904074003 61 311 2.0 4.0 0.00 0.00 0.00 35 1038.2
20260904073503 61 308 3.0 9.0 0.00 0.00 0.00 35 1038.2
20260904073003 60 309 4.0 9.0 0.00 0.00 0.00 36 1038.3
20260904072503 60 312 4.0 9.0 0.00 0.00 0.00 36 1038.3
20260904072003 58 306 3.0 9.0 0.00 0.00 0.00 38 1038.3
20260904071503 59 290 1.0 4.0 0.00 0.00 0.00 38 1038.3
20260904071003 60 281 1.0 3.0 0.00 0.00 0.00 37 1038.3
20260904070503 61 278 1.0 3.0 0.00 0.00 0.00 36 1038.5
20260904070003 62 275 2.0 7.0 0.00 0.00 0.00 35 1038.5
20260904065503 62 266 3.0 7.0 0.00 0.00 0.00 35 1038.5
20260904065003 62 274 2.0 8.0 0.00 0.00 0.00 35 1038.4
20260904064719 62 275 3.0 8.0 0.00 0.00 0.00 35 1038.4
20260904064003 62 267 4.0 8.0 0.00 0.00 0.00 35 1038.4
20260904063503 62 254 4.0 8.0 0.00 0.00 0.00 34 1038.5
20260904063003 63 180 4.0 11.0 0.00 0.00 0.00 34 1038.4
20260904062503 63 165 5.0 12.0 0.00 0.00 0.00 33 1038.5
20260904062003 63 157 5.0 12.0 0.00 0.00 0.00 33 1038.5
20260904061503 63 149 5.0 15.0 0.00 0.00 0.00 33 1038.4
20260904061003 63 154 5.0 15.0 0.00 0.00 0.00 33 1038.5
20260904060503 63 159 4.0 12.0 0.00 0.00 0.00 34 1038.6
20260904060004 63 163 4.0 12.0 0.00 0.00 0.00 34 1038.5
20260904055503 63 161 4.0 10.0 0.00 0.00 0.00 33 1038.5
20260904055003 63 164 3.0 8.0 0.00 0.00 0.00 33 1038.5
20260904054503 63 185 2.0 6.0 0.00 0.00 0.00 33 1038.3
20260904054003 63 199 2.0 7.0 0.00 0.00 0.00 33 1038.3
20260904053503 63 176 2.0 7.0 0.00 0.00 0.00 33 1038.3
20260904053003 63 175 2.0 5.0 0.00 0.00 0.00 34 1038.3
20260904052503 63 217 2.0 4.0 0.00 0.00 0.00 34 1038.3
20260904052219 63 220 2.0 4.0 0.00 0.00 0.00 34 1038.3
20260904051503 63 174 2.0 8.0 0.00 0.00 0.00 34 1038.4
20260904051003 63 161 3.0 8.0 0.00 0.00 0.00 35 1038.3
20260904050503 63 156 3.0 8.0 0.00 0.00 0.00 35 1038.4
20260904050004 63 153 3.0 7.0 0.00 0.00 0.00 35 1038.4
20260904045503 62 161 2.0 7.0 0.00 0.00 0.00 35 1038.4
20260904045003 63 197 1.0 3.0 0.00 0.00 0.00 35 1038.4
20260904044503 63 184 2.0 5.0 0.00 0.00 0.00 35 1038.3
20260904044218 63 160 2.0 5.0 0.00 0.00 0.00 35 1038.3
20260904043503 63 160 2.0 8.0 0.00 0.00 0.00 35 1038.4
20260904043003 63 169 2.0 8.0 0.00 0.00 0.00 35 1038.5
20260904042503 63 169 2.0 5.0 0.00 0.00 0.00 35 1038.5
20260904042003 64 173 2.0 6.0 0.00 0.00 0.00 35 1038.6
20260904041718 64 177 3.0 7.0 0.00 0.00 0.00 36 1038.6
20260904041003 64 180 2.0 7.0 0.00 0.00 0.00 35 1038.7
20260904040503 64 170 2.0 6.0 0.00 0.00 0.00 35 1038.7
20260904040217 65 163 2.0 7.0 0.00 0.00 0.00 35 1038.7
20260904035503 65 148 3.0 8.0 0.00 0.00 0.00 35 1038.7
20260904035218 65 126 4.0 10.0 0.00 0.00 0.00 34 1038.7
20260904034503 66 85 4.0 11.0 0.00 0.00 0.00 34 1038.7
20260904034003 66 124 4.0 11.0 0.00 0.00 0.00 34 1038.7
20260904033503 66 181 3.0 8.0 0.00 0.00 0.00 34 1038.7
20260904033003 66 204 4.0 13.0 0.00 0.00 0.00 34 1038.7
20260904032503 66 187 4.0 13.0 0.00 0.00 0.00 33 1038.6
20260904032003 66 165 4.0 15.0 0.00 0.00 0.00 33 1038.6
20260904031503 66 176 5.0 15.0 0.00 0.00 0.00 33 1038.5
20260904031003 67 177 5.0 15.0 0.00 0.00 0.00 33 1038.5
20260904030503 66 200 4.0 14.0 0.00 0.00 0.00 33 1038.4
20260904030003 66 196 4.0 15.0 0.00 0.00 0.00 32 1038.3
20260904025721 66 181 4.0 15.0 0.00 0.00 0.00 32 1038.2
20260904025219 66 196 4.0 13.0 0.00 0.00 0.00 32 1038.3
20260904024721 67 213 3.0 10.0 0.00 0.00 0.00 32 1038.3
20260904024003 67 190 3.0 7.0 0.00 0.00 0.00 31 1038.3
20260904023717 67 181 3.0 9.0 0.00 0.00 0.00 31 1038.2
20260904023003 67 159 3.0 9.0 0.00 0.00 0.00 31 1038.1
20260904022503 67 136 3.0 17.0 0.00 0.00 0.00 30 1038.1
20260904022003 67 139 5.0 17.0 0.00 0.00 0.00 29 1037.9
20260904021503 67 137 5.0 17.0 0.00 0.00 0.00 29 1037.9
20260904021217 67 133 5.0 17.0 0.00 0.00 0.00 29 1037.8
20260904020503 68 127 3.0 8.0 0.00 0.00 0.00 28 1037.7
20260904020004 68 128 4.0 9.0 0.00 0.00 0.00 28 1037.7
20260904015721 68 124 4.0 10.0 0.00 0.00 0.00 27 1037.7
20260904015219 68 133 5.0 11.0 0.00 0.00 0.00 27 1037.7